KII835 KCVG-KMEM

Flight info

Callsign KII835
Flight time 1h 5m
Altitude 34000
Route CHCLL6 RAMRD BLUZZ5
Aircraft B738/M-SDE2E3FGHIRWXY/LB1

Departure

Time 2026-05-05 12:34
Airport Cincinnati Northern Kentucky International Airport (KCVG)

Arrival

Time 2026-05-05 13:40
Airport Memphis International Airport (KMEM)
Time Latitude Longitude Altitude Speed Heading
2026-05-05 11:25 39.03395 -84.65293 878 ft 0 kts 90°
2026-05-05 12:20 39.03395 -84.65315 878 ft 3 kts 90°
2026-05-05 12:20 39.03395 -84.65341 878 ft 3 kts 86°
2026-05-05 12:20 39.03390 -84.65366 878 ft 3 kts 39°
2026-05-05 12:20 39.03372 -84.65376 878 ft 3 kts
2026-05-05 12:21 39.03360 -84.65376 878 ft 1 kts
2026-05-05 12:21 39.03359 -84.65376 878 ft 0 kts
2026-05-05 12:28 39.03366 -84.65376 878 ft 4 kts
2026-05-05 12:28 39.03420 -84.65375 878 ft 11 kts
2026-05-05 12:28 39.03505 -84.65375 878 ft 12 kts
2026-05-05 12:28 39.03572 -84.65335 878 ft 12 kts 75°
2026-05-05 12:29 39.03573 -84.65233 878 ft 12 kts 90°
2026-05-05 12:29 39.03573 -84.65114 878 ft 15 kts 90°
2026-05-05 12:29 39.03597 -84.64997 878 ft 14 kts 23°
2026-05-05 12:29 39.03697 -84.64992 878 ft 16 kts 359°
2026-05-05 12:30 39.03817 -84.64992 878 ft 19 kts 360°
2026-05-05 12:30 39.03951 -84.64992 878 ft 19 kts 360°
2026-05-05 12:30 39.04084 -84.64992 878 ft 20 kts
2026-05-05 12:30 39.04221 -84.64990 878 ft 19 kts
2026-05-05 12:31 39.04354 -84.64990 878 ft 19 kts
2026-05-05 12:31 39.04455 -84.65024 878 ft 15 kts 291°
2026-05-05 12:31 39.04461 -84.65156 878 ft 15 kts 270°
2026-05-05 12:31 39.04470 -84.65281 879 ft 14 kts 304°
2026-05-05 12:32 39.04560 -84.65300 881 ft 13 kts
2026-05-05 12:32 39.04625 -84.65349 882 ft 11 kts 278°
2026-05-05 12:32 39.04626 -84.65370 883 ft 0 kts 270°
2026-05-05 12:33 39.04626 -84.65409 882 ft 28 kts 270°
2026-05-05 12:34 39.04627 -84.66017 881 ft 102 kts 270°
2026-05-05 12:34 39.04628 -84.67185 884 ft 157 kts 272°
2026-05-05 12:34 39.04661 -84.68740 1151 ft 182 kts 273°
2026-05-05 12:34 39.04730 -84.70317 2146 ft 168 kts 271°
2026-05-05 12:35 39.04784 -84.71734 3302 ft 155 kts 265°
2026-05-05 12:35 39.04741 -84.73225 3767 ft 182 kts 266°
2026-05-05 12:35 39.04675 -84.74960 3964 ft 204 kts 261°
2026-05-05 12:35 39.04121 -84.76652 4355 ft 210 kts 236°
2026-05-05 12:36 39.03025 -84.77933 4800 ft 220 kts 215°
2026-05-05 12:36 39.01583 -84.78718 5260 ft 228 kts 205°
2026-05-05 12:36 39.00026 -84.79392 5505 ft 246 kts 203°
2026-05-05 12:36 38.98356 -84.80089 5988 ft 257 kts 202°
2026-05-05 12:37 38.96655 -84.80797 6783 ft 257 kts 202°
2026-05-05 12:37 38.94947 -84.81512 7549 ft 260 kts 202°
2026-05-05 12:37 38.93216 -84.82243 8347 ft 263 kts 202°
2026-05-05 12:37 38.91468 -84.82985 9149 ft 267 kts 202°
2026-05-05 12:38 38.89691 -84.83742 9909 ft 271 kts 202°
2026-05-05 12:38 38.87870 -84.84521 10427 ft 285 kts 203°
2026-05-05 12:38 38.85905 -84.85367 10588 ft 310 kts 202°
2026-05-05 12:38 38.83783 -84.86277 10773 ft 333 kts 202°
2026-05-05 12:39 38.81519 -84.87245 11016 ft 351 kts 202°
2026-05-05 12:39 38.79157 -84.88175 11539 ft 359 kts 199°
2026-05-05 12:39 38.76749 -84.88959 12187 ft 363 kts 197°
2026-05-05 12:39 38.74289 -84.89708 12945 ft 365 kts 197°
2026-05-05 12:40 38.71796 -84.90461 13642 ft 370 kts 197°
2026-05-05 12:40 38.69276 -84.91230 14257 ft 375 kts 197°
2026-05-05 12:40 38.66690 -84.92029 14900 ft 380 kts 197°
2026-05-05 12:40 38.64145 -84.92821 15568 ft 384 kts 197°
2026-05-05 12:41 38.61531 -84.93637 16209 ft 389 kts 197°
2026-05-05 12:41 38.58887 -84.94465 16829 ft 393 kts 197°
2026-05-05 12:41 38.56216 -84.95301 17430 ft 398 kts 197°
2026-05-05 12:41 38.53507 -84.96147 18017 ft 403 kts 197°
2026-05-05 12:42 38.50780 -84.97050 18549 ft 406 kts 201°
2026-05-05 12:42 38.48188 -84.98467 19096 ft 405 kts 212°
2026-05-05 12:42 38.45811 -85.00398 19645 ft 405 kts 220°
2026-05-05 12:42 38.43687 -85.02760 20187 ft 406 kts 225°
2026-05-05 12:43 38.41603 -85.05221 20689 ft 410 kts 225°
2026-05-05 12:43 38.39507 -85.07705 21188 ft 414 kts 225°
2026-05-05 12:43 38.37382 -85.10211 21682 ft 417 kts 225°
2026-05-05 12:43 38.35237 -85.12723 22171 ft 421 kts 225°
2026-05-05 12:44 38.33071 -85.15247 22639 ft 424 kts 225°
2026-05-05 12:44 38.30879 -85.17791 23107 ft 428 kts 225°
2026-05-05 12:44 38.28667 -85.20352 23542 ft 431 kts 225°
2026-05-05 12:44 38.26441 -85.22925 23916 ft 433 kts 225°
2026-05-05 12:45 38.24208 -85.25504 24342 ft 435 kts 225°
2026-05-05 12:45 38.21963 -85.28095 24756 ft 436 kts 225°
2026-05-05 12:45 38.19711 -85.30692 25156 ft 438 kts 225°
2026-05-05 12:45 38.17450 -85.33298 25547 ft 440 kts 225°
2026-05-05 12:46 38.15176 -85.35918 25940 ft 442 kts 225°
2026-05-05 12:46 38.12893 -85.38546 26316 ft 444 kts 225°
2026-05-05 12:46 38.10598 -85.41184 26684 ft 446 kts 225°
2026-05-05 12:46 38.08334 -85.43870 27013 ft 446 kts 229°
2026-05-05 12:47 38.06332 -85.46865 27344 ft 444 kts 235°
2026-05-05 12:47 38.04443 -85.49971 27675 ft 446 kts 236°
2026-05-05 12:47 38.02553 -85.53099 28021 ft 447 kts 236°
2026-05-05 12:47 38.00659 -85.56213 28472 ft 446 kts 236°
2026-05-05 12:48 37.98763 -85.59298 29018 ft 442 kts 235°
2026-05-05 12:48 37.96866 -85.62361 29575 ft 440 kts 235°
2026-05-05 12:48 37.94976 -85.65400 30091 ft 438 kts 236°
2026-05-05 12:48 37.93091 -85.68422 30538 ft 436 kts 236°
2026-05-05 12:49 37.91222 -85.71415 31108 ft 429 kts 237°
2026-05-05 12:49 37.89383 -85.74355 31753 ft 421 kts 238°
2026-05-05 12:49 37.87583 -85.77231 32393 ft 413 kts 240°
2026-05-05 12:49 37.85817 -85.80055 32988 ft 407 kts 242°
2026-05-05 12:50 37.84072 -85.82844 33516 ft 402 kts 243°
2026-05-05 12:50 37.82339 -85.85603 33893 ft 402 kts 242°
2026-05-05 12:50 37.80356 -85.88199 33930 ft 418 kts 234°
2026-05-05 12:50 37.78061 -85.90519 33918 ft 427 kts 228°
2026-05-05 12:51 37.75480 -85.92489 33927 ft 438 kts 221°
2026-05-05 12:51 37.72766 -85.94217 33935 ft 437 kts 220°
2026-05-05 12:51 37.67315 -85.97606 33932 ft 437 kts 220°
2026-05-05 12:52 37.61907 -86.00991 33917 ft 436 kts 220°
2026-05-05 12:52 37.56474 -86.04422 33921 ft 437 kts 220°
2026-05-05 12:53 37.51032 -86.07867 33924 ft 439 kts 220°
2026-05-05 12:53 37.45563 -86.11324 33916 ft 440 kts 220°
2026-05-05 12:54 37.37336 -86.16510 33909 ft 442 kts 220°
2026-05-05 12:55 37.31825 -86.19976 33921 ft 443 kts 220°
2026-05-05 12:55 37.26307 -86.23441 33921 ft 444 kts 220°
2026-05-05 12:56 37.20784 -86.26902 33927 ft 444 kts 220°
2026-05-05 12:56 37.15264 -86.30356 33927 ft 443 kts 220°
2026-05-05 12:57 37.09742 -86.33808 33932 ft 443 kts 220°
2026-05-05 12:57 37.04218 -86.37254 33951 ft 443 kts 220°
2026-05-05 12:58 36.98700 -86.40692 33957 ft 443 kts 220°
2026-05-05 12:58 36.93467 -86.44476 33927 ft 414 kts 236°
2026-05-05 12:58 36.91614 -86.47112 33949 ft 397 kts 248°
2026-05-05 12:59 36.90241 -86.50057 33965 ft 394 kts 252°
2026-05-05 12:59 36.88069 -86.55107 33954 ft 399 kts 252°
2026-05-05 13:00 36.84118 -86.64236 33937 ft 398 kts 252°
2026-05-05 13:01 36.78777 -86.76353 33928 ft 398 kts 251°
2026-05-05 13:01 36.76101 -86.82391 33915 ft 398 kts 251°
2026-05-05 13:02 36.73425 -86.88420 33922 ft 397 kts 251°
2026-05-05 13:02 36.70746 -86.94446 33886 ft 397 kts 251°
2026-05-05 13:03 36.68066 -87.00465 33905 ft 398 kts 251°
2026-05-05 13:03 36.65369 -87.06512 33922 ft 400 kts 251°
2026-05-05 13:04 36.62662 -87.12567 33906 ft 401 kts 251°
2026-05-05 13:04 36.59948 -87.18625 33914 ft 401 kts 251°
2026-05-05 13:05 36.57230 -87.24680 33926 ft 401 kts 251°
2026-05-05 13:05 36.54508 -87.30738 33916 ft 401 kts 251°
2026-05-05 13:06 36.51780 -87.36794 33931 ft 401 kts 250°
2026-05-05 13:06 36.49048 -87.42849 33936 ft 402 kts 250°
2026-05-05 13:07 36.46312 -87.48905 33900 ft 402 kts 249°
2026-05-05 13:07 36.43592 -87.54909 33929 ft 402 kts 250°
2026-05-05 13:08 36.40850 -87.60955 33932 ft 402 kts 249°
2026-05-05 13:08 36.38100 -87.67008 33933 ft 403 kts 249°
2026-05-05 13:09 36.35347 -87.73057 33923 ft 403 kts 250°
2026-05-05 13:09 36.32588 -87.79108 33931 ft 403 kts 250°
2026-05-05 13:10 36.29822 -87.85159 33926 ft 404 kts 250°
2026-05-05 13:10 36.27051 -87.91209 33924 ft 403 kts 250°
2026-05-05 13:11 36.24279 -87.97251 33919 ft 403 kts 250°
2026-05-05 13:11 36.21502 -88.03296 33915 ft 404 kts 249°
2026-05-05 13:12 36.18711 -88.09368 33429 ft 413 kts 249°
2026-05-05 13:12 36.17292 -88.12449 32777 ft 410 kts 249°
2026-05-05 13:12 36.15880 -88.15505 32035 ft 409 kts 248°
2026-05-05 13:13 36.14469 -88.18558 31234 ft 409 kts 248°
2026-05-05 13:13 36.13054 -88.21620 30422 ft 411 kts 247°
2026-05-05 13:13 36.11633 -88.24694 29498 ft 413 kts 246°
2026-05-05 13:13 36.10227 -88.27724 29357 ft 397 kts 246°
2026-05-05 13:14 36.08871 -88.30640 29133 ft 384 kts 246°
2026-05-05 13:14 36.07564 -88.33451 28945 ft 372 kts 246°
2026-05-05 13:14 36.06283 -88.36216 28338 ft 370 kts 246°
2026-05-05 13:14 36.05010 -88.38956 27849 ft 366 kts 246°
2026-05-05 13:15 36.03732 -88.41711 27341 ft 374 kts 245°
2026-05-05 13:15 36.02420 -88.44541 26812 ft 384 kts 245°
2026-05-05 13:15 36.01092 -88.47396 26265 ft 381 kts 245°
2026-05-05 13:15 35.99778 -88.50210 25737 ft 376 kts 244°
2026-05-05 13:16 35.98477 -88.52991 25228 ft 372 kts 244°
2026-05-05 13:16 35.97187 -88.55750 24720 ft 370 kts 244°
2026-05-05 13:16 35.95907 -88.58488 24212 ft 367 kts 244°
2026-05-05 13:16 35.94637 -88.61204 23709 ft 364 kts 243°
2026-05-05 13:17 35.93376 -88.63899 23138 ft 361 kts 243°
2026-05-05 13:17 35.92126 -88.66566 22575 ft 357 kts 243°
2026-05-05 13:17 35.90890 -88.69203 22073 ft 354 kts 243°
2026-05-05 13:17 35.89655 -88.71839 21563 ft 356 kts 242°
2026-05-05 13:18 35.88407 -88.74499 21052 ft 359 kts 242°
2026-05-05 13:18 35.87159 -88.77156 20537 ft 357 kts 242°
2026-05-05 13:18 35.85920 -88.79792 20044 ft 354 kts 241°
2026-05-05 13:18 35.84687 -88.82412 19558 ft 352 kts 241°
2026-05-05 13:19 35.83475 -88.84985 19085 ft 351 kts 241°
2026-05-05 13:19 35.82251 -88.87581 18605 ft 350 kts 240°
2026-05-05 13:19 35.81035 -88.90162 18165 ft 347 kts 240°
2026-05-05 13:19 35.79826 -88.92724 17628 ft 345 kts 240°
2026-05-05 13:20 35.78625 -88.95265 17145 ft 340 kts 240°
2026-05-05 13:20 35.77453 -88.97746 16663 ft 331 kts 240°
2026-05-05 13:20 35.76307 -89.00170 16205 ft 325 kts 240°
2026-05-05 13:20 35.75173 -89.02566 15742 ft 322 kts 240°
2026-05-05 13:21 35.74048 -89.04939 15277 ft 320 kts 240°
2026-05-05 13:21 35.72894 -89.07271 14805 ft 318 kts 235°
2026-05-05 13:21 35.71444 -89.09321 14345 ft 317 kts 227°
2026-05-05 13:21 35.69900 -89.11256 13895 ft 316 kts 227°
2026-05-05 13:22 35.68360 -89.13181 13422 ft 315 kts 227°
2026-05-05 13:22 35.66837 -89.15106 12947 ft 313 kts 227°
2026-05-05 13:22 35.65330 -89.17032 12487 ft 311 kts 227°
2026-05-05 13:22 35.63837 -89.18953 12052 ft 309 kts 227°
2026-05-05 13:23 35.62363 -89.20855 11635 ft 307 kts 227°
2026-05-05 13:23 35.60918 -89.22718 11508 ft 295 kts 227°
2026-05-05 13:23 35.59543 -89.24552 11177 ft 291 kts 230°
2026-05-05 13:23 35.58257 -89.26459 10788 ft 289 kts 231°
2026-05-05 13:24 35.57018 -89.28351 10671 ft 279 kts 233°
2026-05-05 13:24 35.56196 -89.30449 10520 ft 272 kts 257°
2026-05-05 13:24 35.56210 -89.32752 10432 ft 271 kts 275°
2026-05-05 13:24 35.56551 -89.35028 10309 ft 271 kts 277°
2026-05-05 13:25 35.56937 -89.37316 10067 ft 275 kts 277°
2026-05-05 13:25 35.57332 -89.39623 9832 ft 278 kts 277°
2026-05-05 13:25 35.57731 -89.41950 9586 ft 278 kts 277°
2026-05-05 13:25 35.58130 -89.44264 9318 ft 275 kts 277°
2026-05-05 13:26 35.58528 -89.46545 9058 ft 271 kts 278°
2026-05-05 13:26 35.58923 -89.48800 8806 ft 269 kts 278°
2026-05-05 13:26 35.59315 -89.51041 8553 ft 268 kts 277°
2026-05-05 13:26 35.59709 -89.53273 8302 ft 267 kts 278°
2026-05-05 13:27 35.60101 -89.55499 8046 ft 266 kts 278°
2026-05-05 13:27 35.60493 -89.57715 7803 ft 265 kts 278°
2026-05-05 13:27 35.60885 -89.59925 7558 ft 264 kts 278°
2026-05-05 13:27 35.61158 -89.62143 7298 ft 260 kts 263°
2026-05-05 13:28 35.60704 -89.64238 7059 ft 253 kts 242°
2026-05-05 13:28 35.59687 -89.65953 6830 ft 247 kts 223°
2026-05-05 13:28 35.58372 -89.67289 6609 ft 244 kts 219°
2026-05-05 13:28 35.57037 -89.68557 6366 ft 241 kts 218°
2026-05-05 13:29 35.55710 -89.69805 6120 ft 239 kts 218°
2026-05-05 13:29 35.54396 -89.71045 5873 ft 238 kts 218°
2026-05-05 13:29 35.53085 -89.72284 5623 ft 237 kts 218°
2026-05-05 13:29 35.51785 -89.73517 5376 ft 236 kts 218°
2026-05-05 13:30 35.50491 -89.74747 5137 ft 235 kts 218°
2026-05-05 13:30 35.49203 -89.75971 4909 ft 233 kts 218°
2026-05-05 13:30 35.47930 -89.77183 4704 ft 231 kts 218°
2026-05-05 13:30 35.46668 -89.78384 4489 ft 229 kts 218°
2026-05-05 13:31 35.45419 -89.79574 4286 ft 227 kts 218°
2026-05-05 13:31 35.44179 -89.80755 4106 ft 224 kts 218°
2026-05-05 13:31 35.42953 -89.81923 3932 ft 222 kts 219°
2026-05-05 13:31 35.41734 -89.83083 3768 ft 224 kts 218°
2026-05-05 13:32 35.40501 -89.84259 3581 ft 225 kts 218°
2026-05-05 13:32 35.39264 -89.85436 3447 ft 223 kts 218°
2026-05-05 13:32 35.38066 -89.86576 3297 ft 219 kts 218°
2026-05-05 13:32 35.36851 -89.87730 3132 ft 218 kts 218°
2026-05-05 13:33 35.35647 -89.88875 2963 ft 220 kts 218°
2026-05-05 13:33 35.34441 -89.90020 2777 ft 219 kts 218°
2026-05-05 13:33 35.33237 -89.91166 2623 ft 219 kts 218°
2026-05-05 13:33 35.32040 -89.92303 2529 ft 217 kts 218°
2026-05-05 13:34 35.30864 -89.93420 2506 ft 217 kts 218°
2026-05-05 13:34 35.29666 -89.94555 2500 ft 215 kts 218°
2026-05-05 13:34 35.28521 -89.95641 2477 ft 201 kts 218°
2026-05-05 13:34 35.27451 -89.96654 2472 ft 188 kts 218°
2026-05-05 13:35 35.26336 -89.97469 2477 ft 189 kts 198°
2026-05-05 13:35 35.25022 -89.97628 2487 ft 191 kts 190°
2026-05-05 13:35 35.23660 -89.97692 2481 ft 195 kts 186°
2026-05-05 13:35 35.22318 -89.97672 2477 ft 196 kts 184°
2026-05-05 13:36 35.20960 -89.97639 2483 ft 194 kts 184°
2026-05-05 13:36 35.19644 -89.97607 2470 ft 181 kts 185°
2026-05-05 13:36 35.18435 -89.97580 2470 ft 165 kts 186°
2026-05-05 13:36 35.17316 -89.97557 2468 ft 159 kts 186°
2026-05-05 13:37 35.16209 -89.97536 2472 ft 161 kts 186°
2026-05-05 13:37 35.15070 -89.97512 2304 ft 165 kts 186°
2026-05-05 13:37 35.13925 -89.97487 2092 ft 163 kts 185°
2026-05-05 13:37 35.12828 -89.97461 1871 ft 151 kts 185°
2026-05-05 13:38 35.11782 -89.97440 1694 ft 151 kts 185°
2026-05-05 13:38 35.10785 -89.97417 1472 ft 138 kts 184°
2026-05-05 13:38 35.09869 -89.97398 1384 ft 126 kts 183°
2026-05-05 13:38 35.08979 -89.97383 1205 ft 127 kts 184°
2026-05-05 13:39 35.08095 -89.97364 1047 ft 130 kts 182°
2026-05-05 13:39 35.07191 -89.97340 815 ft 128 kts 181°
2026-05-05 13:39 35.06303 -89.97324 624 ft 129 kts 181°
2026-05-05 13:39 35.05405 -89.97307 461 ft 128 kts 180°
2026-05-05 13:40 35.04519 -89.97288 333 ft 124 kts 180°
2026-05-05 13:40 35.03817 -89.97275 327 ft 71 kts 178°
2026-05-05 13:40 35.03466 -89.97267 327 ft 43 kts 179°
2026-05-05 13:40 35.03259 -89.97263 329 ft 23 kts 179°
2026-05-05 13:41 35.03165 -89.97328 329 ft 17 kts 266°
2026-05-05 13:41 35.03214 -89.97437 323 ft 16 kts 347°
2026-05-05 13:41 35.03326 -89.97440 324 ft 16 kts 359°
2026-05-05 13:41 35.03433 -89.97442 325 ft 15 kts 359°
2026-05-05 13:42 35.03536 -89.97444 325 ft 14 kts 359°
2026-05-05 13:42 35.03634 -89.97446 323 ft 14 kts 359°
2026-05-05 13:42 35.03729 -89.97448 324 ft 14 kts 359°
2026-05-05 13:42 35.03837 -89.97450 326 ft 17 kts 359°
2026-05-05 13:43 35.03968 -89.97453 326 ft 21 kts 359°
2026-05-05 13:43 35.04125 -89.97457 326 ft 24 kts 359°
2026-05-05 13:43 35.04304 -89.97461 326 ft 27 kts 359°
2026-05-05 13:43 35.04498 -89.97465 324 ft 28 kts 359°
2026-05-05 13:44 35.04693 -89.97469 325 ft 25 kts 359°
2026-05-05 13:44 35.04831 -89.97470 325 ft 15 kts
2026-05-05 13:44 35.04871 -89.97372 328 ft 14 kts 89°
2026-05-05 13:44 35.04871 -89.97253 328 ft 15 kts 90°
2026-05-05 13:45 35.04874 -89.97121 327 ft 16 kts 78°
2026-05-05 13:45 35.04928 -89.97069 329 ft 16 kts
2026-05-05 13:45 35.04998 -89.97001 330 ft 12 kts 76°
2026-05-05 13:45 35.05004 -89.96911 330 ft 10 kts 123°
2026-05-05 13:46 35.04948 -89.96885 327 ft 0 kts 169°